Weather in Mitino

Russia / Kurgan Oblast     55°11′38″N   65°28′40″E
temp.,
°C
wind,
m/s
gust,
m/s
humid.,
%
clouds,
%
prec.,
mm/h
press.,
hPa
HPBL,
m
27 january, thu
thu2723:00−15s41090100 0.0 1027136
02:00−14s51290100 0.0 1027194
05:00−14ssw5137999 0.0 1026233
08:00−13ssw51390100 0.0 1026241
11:00−11ssw51293100 0.0 1026291
14:00−8ssw51292100 0.0 1026356
17:00−7ssw51093100 0.0 1026303
20:00−7ssw4109425 0.0 1026281
28 january, fri
fri2823:00−12sw37100100 0.0 102693
02:00−15sw35100100 0.0 102756
05:00−16sw22100100 0.1 102735
08:00−17s1199100 0.0 10279
11:00−13sse1197100 0.0 102739
14:00−9sse119445 0.0 102670
17:00−14se229960 0.0 10269
20:00−14ese2298100 0.0 102623
29 january, sat
sat2923:00−12se3496100 0.0 102551
02:00−15ese2296100 0.0 102526
05:00−15ese3495100 0.0 102444
08:00−16ese3693100 0.0 102476
11:00−13ese4888100 0.0 1023157
14:00−10ese3885100 0.0 1022216
17:00−13e3789100 0.0 102191
20:00−13ese41088100 0.0 1020161
30 january, sun
sun3023:00−14ese3892100 0.0 1018122
02:00−13se3692100 0.0 1017105
05:00−13sse3693100 0.0 1015125
08:00−12ssw3795100 0.0 1015214
11:00−15sw499530 0.0 1015211
14:00−14sw48925 0.0 1016235
17:00−16ssw48945 0.0 1017116
20:00−15ssw410966 0.0 1017152
31 january, mon
mon3123:00−12ssw5129571 0.0 1017215
02:00−8ssw5149587 0.0 1016274
05:00−4ssw7149499 0.1 1017585
08:00−3sw7139292 0.1 1017647
11:00−5ssw7139292 0.1 1019475
14:00−5ssw6139279 0.0 1020480
17:00−5ssw61293100 0.0 1021368
20:00−6ssw61393100 0.0 1022364